FW8829 Weather Reports


Display with metric or nautical units.
time (UTC)temp
F
wind
direction
speed
MPH
gust
MPH
rain 1hr
in
rain 24hr
in
rain mn
in
humidity
%
barometer
mb
20260508203042 68 67 1.0 7.0 0.00 0.01 0.01 42 1015.7
20260508201546 67 342 6.0 9.0 0.00 0.01 0.01 38 1016.1
20260508200046 68 70 1.0 6.0 0.00 0.01 0.01 40 1016.6
20260508194542 66 297 4.0 9.0 0.00 0.01 0.01 40 1016.9
20260508193043 67 353 3.0 8.0 0.00 0.01 0.01 39 1017.1
20260508191542 66 294 3.0 7.0 0.00 0.01 0.01 41 1016.9
20260508190042 67 349 2.0 4.0 0.00 0.01 0.01 40 1017.2
20260508184544 65 282 4.0 7.0 0.00 0.01 0.01 38 1017.6
20260508183043 65 64 1.0 8.0 0.00 0.01 0.01 38 1017.7
20260508181554 66 296 1.0 7.0 0.00 0.01 0.01 44 1017.8
20260508180049 65 284 4.0 7.0 0.00 0.01 0.01 39 1018.0
20260508174550 65 32 1.0 4.0 0.00 0.01 0.01 32 1018.1
20260508173044 64 333 0.0 4.0 0.00 0.01 0.01 35 1018.5
20260508171543 64 332 3.0 5.0 0.00 0.01 0.01 37 1018.8
20260508170043 64 186 1.0 5.0 0.00 0.01 0.01 37 1019.2
20260508164544 64 349 1.0 3.0 0.00 0.01 0.01 42 1019.3
20260508163040 61 330 3.0 7.0 0.00 0.01 0.01 43 1019.4
20260508161545 61 345 1.0 5.0 0.00 0.01 0.01 46 1019.6
20260508160047 60 51 4.0 6.0 0.00 0.01 0.01 43 1019.9
20260508154545 59 40 2.0 3.0 0.00 0.02 0.01 48 1020.2
20260508153047 58 105 4.0 7.0 0.00 0.02 0.01 49 1020.0
20260508151544 58 78 0.0 4.0 0.00 0.02 0.01 51 1020.3
20260508150042 57 276 1.0 5.0 0.00 0.02 0.01 56 1020.5
20260508144547 56 44 3.0 8.0 0.00 0.04 0.01 55 1020.6
20260508143042 55 309 3.0 7.0 0.00 0.04 0.01 73 1020.6
20260508141610 54 285 2.0 5.0 0.00 0.04 0.01 78 1020.6
20260508140045 52 340 1.0 3.0 0.00 0.04 0.01 88 1020.7
20260508134554 50 0 1.0 3.0 0.00 0.05 0.01 94 1020.5
20260508133045 49 0 0.0 1.0 0.00 0.05 0.01 97 1020.6
20260508131546 47 0 0.0 2.0 0.00 0.05 0.01 97 1020.4
20260508130045 46 94 0.0 3.0 0.00 0.05 0.01 97 1020.5
20260508124548 44 269 0.0 3.0 0.00 0.06 0.01 96 1020.3
20260508123050 44 0 0.0 1.0 0.00 0.06 0.01 97 1020.1
20260508121541 43 111 0.0 2.0 0.00 0.06 0.01 96 1020.0
20260508120052 44 0 0.0 1.0 0.00 0.06 0.01 96 1019.9
20260508114544 43 0 0.0 0.0 0.00 0.07 0.01 96 1019.6
20260508113105 43 0 0.0 2.0 0.00 0.07 0.01 96 1019.6
20260508111544 43 0 0.0 1.0 0.00 0.07 0.01 96 1019.3
20260508110041 42 0 0.0 1.0 0.00 0.07 0.01 95 1019.3
20260508104544 42 0 0.0 2.0 0.00 0.07 0.01 95 1019.0
20260508103044 42 0 0.0 1.0 0.00 0.07 0.01 94 1018.8
20260508101547 43 0 0.0 1.0 0.00 0.07 0.01 94 1018.7
20260508100040 43 0 0.0 0.0 0.00 0.07 0.01 94 1018.6
20260508094547 43 0 0.0 0.0 0.00 0.09 0.01 94 1018.5
20260508093053 43 82 1.0 1.0 0.00 0.09 0.01 94 1018.3
20260508091550 43 0 0.0 0.0 0.01 0.09 0.01 90 1018.5
20260508090046 44 0 0.0 0.0 0.01 0.09 0.01 90 1018.2
20260508084542 44 0 0.0 0.0 0.01 0.12 0.01 90 1018.1
20260508083104 44 0 0.0 0.0 0.01 0.12 0.01 89 1018.2
20260508081554 45 0 0.0 0.0 0.00 0.11 0.00 90 1018.1
20260508080042 45 0 0.0 1.0 0.00 0.11 0.00 89 1018.2
20260508074550 45 0 0.0 0.0 0.00 0.11 0.00 94 1018.2
20260508073043 45 0 0.0 0.0 0.00 0.11 0.00 93 1018.1
20260508071545 45 0 0.0 0.0 0.00 0.11 0.00 92 1018.3
20260508070044 46 0 0.0 0.0 0.00 0.11 0.00 91 1018.3
20260508064548 48 0 0.0 1.0 0.00 0.12 0.00 92 1018.6
20260508063040 47 111 0.0 2.0 0.00 0.12 0.00 91 1018.5
20260508061545 47 65 0.0 1.0 0.00 0.12 0.00 86 1018.4
20260508060043 47 0 0.0 1.0 0.00 0.12 0.00 85 1018.6
20260508054542 48 0 0.0 3.0 0.00 0.12 0.00 85 1018.4
20260508053046 48 70 1.0 2.0 0.00 0.12 0.00 90 1018.5
20260508051550 49 63 2.0 3.0 0.00 0.12 0.00 91 1018.4
20260508050046 48 59 1.0 2.0 0.00 0.12 0.00 94 1018.5
20260508044547 48 38 0.0 1.0 0.00 0.12 0.00 96 1018.2
20260508043051 49 0 0.0 1.0 0.00 0.12 0.00 97 1018.2
20260508041545 48 0 0.0 1.0 0.00 0.12 0.00 97 1018.0
20260508040046 49 0 0.0 2.0 0.00 0.12 0.00 96 1018.0
20260508034543 49 0 0.0 2.0 0.00 0.12 0.12 96 1017.9
20260508033042 49 12 0.0 1.0 0.00 0.12 0.12 96 1018.0
20260508031542 49 0 0.0 1.0 0.00 0.12 0.12 96 1018.1
20260508030045 50 0 0.0 2.0 0.00 0.12 0.12 96 1017.8
20260508024546 49 313 0.0 2.0 0.00 0.12 0.12 95 1017.7
20260508023044 50 0 0.0 1.0 0.00 0.12 0.12 95 1017.4
20260508021548 50 321 0.0 2.0 0.00 0.12 0.12 95 1017.3
20260508020041 50 292 1.0 2.0 0.00 0.12 0.12 94 1017.3
20260508014541 50 0 0.0 2.0 0.00 0.25 0.12 93 1016.8
20260508013046 50 297 1.0 3.0 0.00 0.25 0.12 93 1016.7
20260508011543 50 275 1.0 4.0 0.00 0.25 0.12 93 1016.5
20260508010038 51 297 1.0 4.0 0.00 0.25 0.12 92 1016.2
20260508004545 52 285 2.0 4.0 0.00 0.28 0.12 90 1016.1
20260508003038 52 269 0.0 2.0 0.00 0.28 0.12 89 1016.0
20260508001542 53 0 0.0 1.0 0.00 0.28 0.12 86 1015.9
20260508000045 55 231 2.0 4.0 0.00 0.28 0.12 84 1016.0
20260507234543 56 298 2.0 4.0 0.00 0.29 0.12 84 1015.7
20260507233046 57 203 1.0 3.0 0.00 0.29 0.12 83 1015.9
20260507231547 55 204 2.0 4.0 0.00 0.29 0.12 85 1016.0
20260507230047 55 318 1.0 4.0 0.00 0.29 0.12 86 1016.2
20260507224543 55 271 3.0 7.0 0.00 0.29 0.12 84 1016.3
20260507223041 57 302 2.0 9.0 0.00 0.29 0.12 83 1016.1
20260507221544 58 288 2.0 8.0 0.00 0.29 0.12 80 1015.9
20260507220051 56 281 2.0 8.0 0.00 0.29 0.12 82 1015.7
20260507214603 57 170 1.0 4.0 0.00 0.29 0.12 81 1015.7
20260507213058 55 300 2.0 6.0 0.00 0.29 0.12 84 1015.5
20260507211546 56 334 1.0 4.0 0.00 0.29 0.12 83 1015.5
20260507210051 54 296 2.0 4.0 0.00 0.29 0.12 85 1015.5
20260507204556 53 0 1.0 3.0 0.00 0.29 0.12 86 1015.5